Location: Cosy Dell
(34.2789°N, 117.4537°W)
Time: 21:08:52
(UTC+00:00)

Cosmos 1943 Rocket - Pass Details

Date: 14 July 2020
Orbit: 811 x 845 km, 71.0° (Epoch: 13 August)

Event Time Altitude Azimuth Distance (km) Brightness Sun altitude
Rises 06:34:21 0° 341° (NNW) 3,405 6.5 -30.9°
Reaches altitude 10° 06:36:49 10° 343° (NNW) 2,464 5.5 -31.1°
Enters shadow 06:41:25 58° 6° (N) 974 2.6 -31.4°
